Showing default

SPACEMOBILE-010, 69591

Orbit data source: Space-Track

SPACEMOBILE-010, 69591 is a payload satellite owned by AST & Science (US) in LEO that was launched on Wed, 17 Jun 2026 UTC via an FALCON 9 launch vehicle from the Air Force Eastern Test Range (AFETR). Payload-class satellites include a variety of spacecraft equipped with specific instruments for various scientific and technological missions. These include communications satellites like Starlink; space stations such as the ISS; scientific satellites like the Hubble; Earth observation satellites from companies like Planet Labs, Umbra, and HawkEye 360; GPS; miniature CubeSats for education and research; and military/defense satellites.

Loading next visibility...
Identifier
69591, 2026-139C
Orbit
LEO
Country
Flag of USUS
Related business
Manufacturer
AST & Science
Mission
Operational spacecraft
Bus & Motor
BB BLOCK-2, EP
Mass
5,850 kg wet, 5,830 kg dry
Launch date (UTC)
2026-06-17 (1 month ago)
Launch vehicle
FALCON 9
Launch site
Air Force Eastern Test Range (AFETR)
Object type
Payload
Rocket body
Debris
Shape & HBR
Unknown shape, 14.5 m
Radar Cross Section
Large (>1 m²)

Expand to show TLE details & history
Last TLE update: 19 hours ago

TLE from 19 hours ago
0 SPACEMOBILE-010
1 69591U 26139C   26202.43522734  .00001174  00000-0  83597-4 0  9992
2 69591  52.9950 107.1407 0005562  60.2042 299.9501 15.12546197  5173
Epoch: 2026-07-21T10:26Z
TLE epoch observation values (Epoch: 2026-07-21T10:26:43.642Z)
Latitude
-0.00004°
Longitude
11.25387°
Altitude
527.397 km
Speed
7.602 km/s
True Right ascension
07h 08m 33s
True Declination
0° 00' 00"
Sunlit
Object was in daylight at epoch
Visualization orbit readout
Latitude
Unknown
Longitude
Unknown
Altitude
Unknown
Speed
Unknown
Apparent Right ascension
Unknown
Apparent Declination
Unknown
Sunlit
N/A
Visualization observer readout
Local Sidereal Time
18:38:13
Azimuth
Unknown
Elevation
Unknown
Doppler factor
Unknown
Orbital elements
Apogee altitude
532.561 km
Perigee altitude
524.878 km
Semi-major axis
6,906.856 km
Eccentricity
0.00056
Inclination
52.995°
RAAN
107.1407°
Arg. of periapsis
60.2042°
True anomaly
299.89486°
Mean anomaly
299.9501°
Eccentric anomaly
299.92248°
Mean motion
3.78114 °/min
Orbital period
95.21 mins
BSTAR
0.000083597
Loading maneuver chart data...
Computing Atmospheric mass density...
Loading historical data...
Loading historical data...
Loading historical data...
Loading historical data...
Loading historical data...
Loading historical data...
Loading historical data...
Other satellites on launch #139 in the year 2026 (2026-06-17 UTC)

Documentation

Showing up to 5 results
|